Domov               UVHVVR             MKGP            O straneh              
ZDRAVSTVENO VARSTVO RASTLIN
  MREŽA AGROMET. POSTAJ
 ► PROGNOSTIČNA OBVESTILA
AGROMETEOROLOŠKI PODATKI -
ARSO
OBVLADOVANJE TVEGANJ ZARADI
NEUGODNIH VREMENSKIH RAZMER
  ► NARAVNE NESREČE
  ► SUŠA/MOČA
  ► NAMAKANJE
  ► ŽLED (gozdarstvo)
KARTOGRAFSKI PRIKAZI
SPLETNE POVEZAVE
PROJEKTI IN PUBLIKACIJE

AGROMETEOROLOŠKA MREŽA: VREMENSKE POSTAJE IN FENOLOŠKA OPAZOVANJA

Pregled podatkov za lokacijo Škofja vas, meteorološka postaja 49151

Pregled senzorjev na lokaciji

ID Ime Zadnja
vrednost
Datum
zadnje
spremembe
Tip
senzorja
3712 Temperatura 2 m (°C) 6,86 °C 18.1.2018 20:00 50YA
3713 Relativna vlaga 2 m (% RH) 48,26 % RH 18.1.2018 20:00 50YA
3714 Omočenost lista (U) 0 U 18.1.2018 20:00 A730WET
3715 Sončno sevanje (W/m2) 0,52 W/m2 18.1.2018 20:00 Pyranometer SP-Lite
3716 Temperatura tal 5 cm (°C) 3,31 °C 18.1.2018 20:00 99TG411E
3717 Hitrost vetra (km/h) 12,99 km/h 18.1.2018 20:00 566.2S-176 (200km/h)
3718 Smer vetra (°) 283,45 ° 18.1.2018 20:00 566.2S-130
3719 Padavine (mm) 0 mm 18.1.2018 20:00 Rain-O-Matic

Pregled podatkov zadnjih 24 ur

Zap.
št.
Datum in čas Škofja vas
Hitrost
vetra
Omočenost
lista
Padavine Relativna
vlaga
2
m
Smer
vetra
Sončno
sevanje
Temperatura
2
m
Temperatura
tal
5
cm
0 18.1.2018 20:00 12,99 0 0 48,26 283,45 0,52 6,86 3,31
1 18.1.2018 19:30 12,67 0 0 46 261,91 0,52 7,05 3,32
2 18.1.2018 19:00 14,11 0 0 45,24 227,82 0,46 7,19 3,31
3 18.1.2018 18:30 11,73 0 0 45,16 279,02 0,52 7,16 3,28
4 18.1.2018 18:00 9,02 0 0 42,99 276,2 0,46 7,32 3,26
5 18.1.2018 17:30 8,53 0 0 41,41 285,06 0,61 7,55 3,22
6 18.1.2018 17:00 10,02 0 0 40,96 274,28 3,75 7,76 3,22
7 18.1.2018 16:30 12,29 0 0 39,09 256,55 27,47 8,33 3,2
8 18.1.2018 16:00 15,11 0 0 36,16 289,81 87,56 8,94 3,23
9 18.1.2018 15:30 12,51 0 0 34,13 274,27 137,21 9,24 3,23
10 18.1.2018 15:00 11,19 0 0 34,29 271,58 186,5 9,33 3,23
11 18.1.2018 14:30 7,13 0 0 34,38 216,22 230,53 9,42 3,23
12 18.1.2018 14:00 1,06 0 0 36,19 242 251,22 9,07 3,18
13 18.1.2018 13:30 2 0 0 38,57 298,82 182,96 8,1 3,16
14 18.1.2018 13:00 5,4 0 0 39,97 261,09 310,58 8,09 3,25
15 18.1.2018 12:30 0,05 0 0 55,55 202,24 159,15 5,98 3,24
16 18.1.2018 12:00 0,05 0 0 69,42 45,95 293,16 3,57 3,2
17 18.1.2018 11:30 0,05 2 0 72,43 55,08 290,65 2,16 3,16
18 18.1.2018 11:00 0,05 10 0 76,44 45,19 134,62 1,03 3,07
19 18.1.2018 10:30 0,05 6 0 80,01 36,52 114,69 0,5 3,09
20 18.1.2018 10:00 0,05 1 0 76,85 72,81 125,19 0,82 3,22
21 18.1.2018 09:30 0,05 1 0 79,84 141,13 139,86 -0,13 3,25
22 18.1.2018 09:00 0,05 0 0 88,46 35,24 97,44 -2,06 3,21
23 18.1.2018 08:30 0,05 0 0 90,31 331,06 55,48 -3,2 3,14
24 18.1.2018 08:00 0,04 0 0 94,39 62,08 13,46 -4,58 3,04
25 18.1.2018 07:30 0,05 0 0 93,87 7,38 1,34 -4,44 3,06
26 18.1.2018 07:00 0,04 0 0 94,8 235,57 0,52 -4,59 3,12
27 18.1.2018 06:30 0,04 0 0 95,22 39,94 0,52 -4,6 3,15
28 18.1.2018 06:00 0,05 0 0 94,27 53,2 0,55 -4,28 3,21
29 18.1.2018 05:30 0,05 0 0 93,61 236,02 0,49 -4,26 3,26
30 18.1.2018 05:00 0,05 0 0 91,88 135,08 0,46 -3,83 3,32
31 18.1.2018 04:30 0,05 0 0 92,47 71,42 0,46 -3,98 3,37
32 18.1.2018 04:00 0,05 0 0 92,96 40,39 0,52 -3,69 3,4
33 18.1.2018 03:30 0,05 0 0 90,79 247,19 0,52 -3,62 3,47
34 18.1.2018 03:00 0,05 0 0 84,76 20,92 0,52 -2,75 3,53
35 18.1.2018 02:30 0,05 0 0 81,72 166,55 0,55 -1,79 3,65
36 18.1.2018 02:00 0,05 0 0 83,04 252,04 0,55 -2,04 3,68
37 18.1.2018 01:30 0,04 0 0 87,45 290,78 0,49 -2,39 3,72
38 18.1.2018 01:00 0,05 0 0 91,33 11,24 -2,77 3,77
39 18.1.2018 00:30 0,04 0 0 89,4 51,63 -2,69 3,84
40 18.1.2018 00:00 0,05 0 0 88,26 109,04 -2,53 3,88
41 17.1.2018 23:30 0,05 0 0 88,22 182,81 -2,28 3,94
42 17.1.2018 23:00 0,04 0 0 84,13 314,36 -1,91 4
43 17.1.2018 22:30 0,05 0 0 81,57 75,94 -1,47 4,08
44 17.1.2018 22:00 0,05 0 0 71,32 27,5 -0,39 4,14
45 17.1.2018 21:30 0,04 0 0 66,03 188,62 0,09 4,2
46 17.1.2018 21:00 0,05 0 0 64,1 198,06 0,85 4,25
47 17.1.2018 20:30 0,05 0 0 47,55 350,67 2,97 4,35
© 2011 Ministrstvo za kmetijstvo, gozdarstvo in prehrano. Vse pravice pridržane.